DW4252 Weather Reports


time (UTC)temp
F
wind
direction
speed
knots
gust
knots
rain 1hr
in
rain 24hr
in
rain mn
in
humidity
%
barometer
mb
20260901132007 69 261 4.3 6.1 0.00 0.00 0.00 57 1021.4
20260901131007 69 256 6.1 10.4 0.00 0.00 0.00 56 1021.5
20260901130007 70 249 4.3 8.7 0.00 0.00 0.00 54 1021.3
20260901123006 71 255 6.1 12.2 0.00 0.00 0.00 53 1021.6
20260901122006 72 233 5.2 9.6 0.00 0.00 0.00 48 1021.5
20260901120006 75 239 5.2 9.6 0.00 0.00 0.00 48 1021.6
20260901112006 72 241 6.1 9.6 0.00 0.00 0.00 52 1021.6
20260901110006 71 255 5.2 8.7 0.00 0.00 0.00 55 1021.5
20260901105006 71 267 4.3 7.8 0.00 0.00 0.00 56 1021.6
20260901104006 71 275 6.1 9.6 0.00 0.00 0.00 55 1021.7
20260901103006 71 277 5.2 9.6 0.00 0.00 0.00 55 1021.9
20260901102006 71 276 6.1 9.6 0.00 0.00 0.00 55 1022.0
20260901101007 71 273 6.1 11.3 0.00 0.00 0.00 55 1022.0
20260901100007 71 270 6.1 11.3 0.00 0.00 0.00 56 1022.1
20260901095007 69 265 4.3 8.7 0.00 0.00 0.00 63 1022.2
20260901094007 66 273 5.2 9.6 0.00 0.00 0.00 64 1022.2
20260901093006 65 271 4.3 7.8 0.00 0.00 0.00 65 1022.4
20260901092006 65 278 5.2 8.7 0.00 0.00 0.00 65 1022.5
20260901091007 65 276 3.5 5.2 0.00 0.00 0.00 70 1022.4
20260901090006 64 280 2.6 4.3 0.00 0.00 0.00 73 1022.4
20260901084007 62 262 2.6 4.3 0.00 0.00 0.00 79 1022.2
20260901083006 61 259 2.6 3.5 0.00 0.00 0.00 82 1022.1
20260901082006 60 235 2.6 4.3 0.00 0.00 0.00 83 1022.1
20260901081007 59 220 2.6 3.5 0.00 0.00 0.00 84 1021.9
20260901080006 58 251 1.7 2.6 0.00 0.00 0.00 85 1021.8
20260901075007 58 247 0.9 2.6 0.00 0.00 0.00 86 1021.8
20260901074006 58 247 1.7 3.5 0.00 0.00 0.00 87 1021.7
20260901073006 57 234 1.7 3.5 0.00 0.00 0.00 89 1021.8
20260901072007 57 190 1.7 2.6 0.00 0.00 0.00 91 1021.7
20260901071007 56 176 1.7 2.6 0.00 0.00 0.00 92 1021.6
20260901070008 55 164 0.9 2.6 0.00 0.00 0.00 92 1021.6
20260901065007 55 168 1.7 2.6 0.00 0.00 0.00 93 1021.5
20260901063007 54 177 0.9 2.6 0.00 0.00 0.00 93 1021.3
20260901062006 53 192 0.9 2.6 0.00 0.00 0.00 95 1021.2
20260901061007 53 200 0.9 1.7 0.00 0.00 0.00 95 1021.1
20260901060007 52 208 0.0 1.7 0.00 0.00 0.00 94 1021.0
20260901053006 51 188 0.9 1.7 0.00 0.00 0.00 93 1020.8
20260901052007 51 179 1.7 2.6 0.00 0.00 0.00 92 1020.8
20260901051007 51 179 0.9 1.7 0.00 0.00 0.00 92 1020.9
20260901045006 52 184 0.9 1.7 0.00 0.00 0.00 92 1020.7
20260901044005 52 184 0.9 1.7 0.00 0.00 0.00 92 1020.5
20260901043006 52 187 1.7 3.5 0.00 0.00 0.00 91 1020.5
20260901042006 52 187 1.7 2.6 0.00 0.00 0.00 91 1020.5
20260901041006 53 184 1.7 2.6 0.00 0.00 0.00 91 1020.3
20260901035006 53 181 1.7 2.6 0.00 0.00 0.00 90 1020.4
20260901034006 53 177 1.7 3.5 0.00 0.00 0.00 90 1020.4
20260901033006 53 174 0.9 2.6 0.00 0.00 0.00 89 1020.4
20260901032006 53 174 1.7 3.5 0.00 0.00 0.00 89 1020.4
20260901031006 53 176 1.7 3.5 0.00 0.00 0.00 88 1020.3
20260901025006 54 177 1.7 3.5 0.00 0.00 0.00 85 1020.4
20260901024006 54 176 2.6 3.5 0.00 0.00 0.00 84 1020.4
20260901023006 55 176 1.7 2.6 0.00 0.00 0.00 84 1020.3
20260901022006 55 176 1.7 2.6 0.00 0.00 0.00 84 1020.3
20260901021006 56 183 1.7 3.5 0.00 0.00 0.00 83 1020.4
20260901020006 56 190 1.7 3.5 0.00 0.01 0.00 83 1020.4
20260901015006 56 189 1.7 2.6 0.00 0.01 0.00 83 1020.6
20260901014006 56 193 1.7 3.5 0.00 0.01 0.00 83 1020.5
20260901013006 56 196 1.7 2.6 0.00 0.01 0.00 83 1020.2
20260901011006 57 196 1.7 2.6 0.00 0.01 0.00 82 1020.3
20260901010006 57 203 1.7 3.5 0.00 0.01 0.00 81 1020.0
20260901005005 57 206 1.7 2.6 0.00 0.01 0.00 81 1020.0
20260901004006 58 233 1.7 3.5 0.00 0.01 0.00 80 1020.0
20260901003006 58 235 1.7 3.5 0.00 0.01 0.00 80 1020.0
20260901002006 58 243 1.7 2.6 0.00 0.04 0.00 80 1019.8
20260901000007 58 248 2.6 3.5 0.00 0.04 0.00 79 1019.9
20260831235006 58 259 2.6 3.5 0.00 0.04 0.00 78 1019.8
20260831234006 59 255 1.7 4.3 0.00 0.04 0.00 78 1019.6
20260831233006 59 258 2.6 4.3 0.00 0.04 0.00 77 1019.8
20260831232006 59 260 2.6 4.3 0.00 0.04 0.00 77 1019.8
20260831231006 59 256 1.7 3.5 0.00 0.04 0.00 76 1019.7
20260831230020 60 262 2.6 4.3 0.00 0.04 0.00 76 1019.6
20260831224006 60 257 3.5 5.2 0.00 0.04 0.04 75 1019.8
20260831223005 60 259 3.5 6.1 0.00 0.04 0.04 74 1019.7
20260831222006 60 256 4.3 8.7 0.00 0.04 0.04 74 1019.7
20260831221005 61 256 5.2 6.1 0.00 0.04 0.04 74 1019.7
20260831220006 61 262 3.5 5.2 0.00 0.04 0.04 73 1019.7
20260831215006 61 268 3.5 6.1 0.00 0.04 0.04 73 1019.5
20260831213006 61 265 4.3 6.1 0.00 0.04 0.04 71 1019.4
20260831212006 62 267 4.3 7.0 0.00 0.04 0.04 71 1019.3
20260831211006 62 260 4.3 7.0 0.00 0.04 0.04 70 1019.2
20260831210006 62 259 3.5 6.1 0.00 0.04 0.04 69 1019.1
20260831205006 63 263 4.3 7.8 0.00 0.04 0.04 65 1019.0
20260831204006 63 264 5.2 8.7 0.00 0.04 0.04 65 1018.8
20260831202006 63 264 5.2 7.8 0.00 0.04 0.04 65 1018.6
20260831201006 64 259 5.2 7.8 0.00 0.04 0.04 65 1018.6
20260831200006 64 258 4.3 7.0 0.00 0.04 0.04 65 1018.2
20260831195006 64 258 3.5 6.1 0.00 0.04 0.04 65 1018.1
20260831194006 65 264 3.5 7.0 0.00 0.04 0.04 65 1018.1
20260831193006 65 266 2.6 4.3 0.00 0.04 0.04 65 1017.9
20260831192006 65 270 2.6 4.3 0.00 0.04 0.04 64 1017.8
20260831191006 66 273 4.3 6.1 0.00 0.04 0.04 64 1017.6
20260831185015 67 276 5.2 8.7 0.00 0.04 0.04 63 1017.4
20260831184007 67 272 7.0 12.2 0.00 0.04 0.04 63 1017.3
20260831183006 68 271 6.1 9.6 0.00 0.04 0.04 63 1017.2
20260831182007 68 273 7.8 11.3 0.00 0.04 0.04 63 1017.1
20260831181007 69 270 7.0 10.4 0.00 0.04 0.04 63 1016.9
20260831180007 69 270 8.7 13.0 0.00 0.04 0.04 63 1016.7
20260831175007 69 259 4.3 8.7 0.00 0.04 0.04 67 1016.6
20260831174007 69 237 4.3 8.7 0.00 0.04 0.04 68 1016.5
20260831173007 69 232 4.3 6.1 0.00 0.04 0.04 70 1016.4
20260831171007 69 230 5.2 8.7 0.00 0.04 0.04 70 1016.2
20260831170007 70 245 6.1 8.7 0.00 0.04 0.04 68 1016.1
20260831163006 72 255 6.1 10.4 0.00 0.04 0.04 55 1015.7
20260831162007 73 255 7.8 11.3 0.00 0.04 0.04 54 1015.7
20260831161007 74 254 8.7 12.2 0.00 0.04 0.04 54 1015.6
20260831160007 73 258 7.8 15.6 0.00 0.04 0.04 54 1015.2
20260831155007 73 261 8.7 13.0 0.00 0.04 0.04 55 1015.3
20260831154007 73 264 9.6 14.8 0.00 0.04 0.04 55 1015.3
20260831153007 72 265 9.6 14.8 0.00 0.04 0.04 55 1015.0
20260831152007 72 256 6.1 9.6 0.00 0.04 0.04 58 1014.9
20260831151007 71 246 6.1 11.3 0.00 0.04 0.04 63 1015.0
20260831144007 71 270 7.8 11.3 0.00 0.04 0.04 62 1014.9
20260831143007 71 280 8.7 14.8 0.00 0.04 0.04 61 1014.8
20260831142007 71 286 7.8 11.3 0.00 0.04 0.04 62 1014.6
20260831141007 72 294 7.8 11.3 0.00 0.04 0.04 57 1014.6
20260831135007 71 281 7.0 12.2 0.00 0.04 0.04 62 1014.3
20260831134007 71 277 9.6 13.9 0.00 0.04 0.04 60 1014.3